Lucknow / Amausi, India

3:21 PM IST on December 06, 2016 (GMT +0530)
Lucknow

Weather History for VILK - January, 2014

Change the Weather History Date:

Wednesday, January 1, 2014

  Actual Average Record
Temperature  
Mean Temperature 61 °F -  
Max Temperature 73 °F 64 °F 82 °F (2006)
Min Temperature 49 °F 48 °F 39 °F (2005)
Degree Days  
Heating Degree Days 4    
Growing Degree Days 11 (Base 50)    
Moisture  
Dew Point 56 °F    
Average Humidity 80    
Maximum Humidity 100    
Minimum Humidity 50    
Precipitation  
Precipitation 0.00 in - - ()
Sea Level Pressure  
Sea Level Pressure 30.07 in    
Wind  
Wind Speed 4 mph ()    
Max Wind Speed 9 mph    
Max Gust Speed -    
Visibility 1.1 miles    
Events Fog    
Averages and records for this station are not official NWS values.
T = Trace of Precipitation, MM = Missing Value Source: Averaged Metar Reports

Daily Weather History Graph

Daily Weather History Graph

Search for Another Location

Airport or City:

Trip Planner

Search our weather history database for the weather conditions in past years. The results will help you decide how hot, cold, wet, or windy it might be!

Date:

Astronomy

Jan. 01, 2014 Rise Set
Actual Time 6:55 AM IST 5:24 PM IST
Civil Twilight 6:29 AM IST 5:50 PM IST
Nautical Twilight 6:00 AM IST 6:18 PM IST
Astronomical Twilight 5:32 AM IST 6:47 PM IST
Moon 6:23 AM IST (1/1) 5:30 PM IST (1/1)
Length of Visible Light 11h 20m
Length of Day
10h 29m
Waning Crescent, 0% of the Moon is Illuminated
Jan 1
Waning Crescent
Jan 1
New
Jan 8
First Quarter
Jan 16
Full
Jan 24
Last Quarter

Hourly Weather History & Observations

Time (IST) Temp. Dew Point Humidity Pressure Visibility Wind Dir Wind Speed Gust Speed Precip Events Conditions
12:00 AM 53.6 °F 51.8 °F 94% 30.06 in 0.2 mi WNW 3.5 mph - N/A Fog Fog
1:00 AM 53.6 °F 51.8 °F 94% 30.06 in 0.2 mi NW 4.6 mph - N/A Fog Fog
2:00 AM 53.6 °F 51.8 °F 94% 30.09 in 0.2 mi NW 3.5 mph - N/A Fog Fog
2:30 AM 56 °F 55 °F 95% 30.12 in 0 mi NW 3.5 mph - - Fog Heavy Fog
3:00 AM 55.4 °F 55.4 °F 100% 30.09 in 0.2 mi NW 3.5 mph - N/A Fog Fog
4:00 AM 55.4 °F 53.6 °F 94% 30.06 in 0.2 mi NW 3.5 mph - N/A Fog Fog
5:00 AM 53.6 °F 53.6 °F 100% 30.06 in 0.1 mi West 3.5 mph - N/A Fog Fog
5:30 AM 54 °F 53 °F 96% 30.10 in 0 mi 1.2 mph - - Fog Partial Fog
5:30 AM 53.6 °F 53.6 °F 100% 30.06 in 0.1 mi Variable 1.2 mph - N/A Fog Fog
6:00 AM 53.6 °F 53.6 °F 100% 30.06 in 0.1 mi Calm Calm - N/A Fog Fog
7:00 AM 53.6 °F 51.8 °F 94% 30.09 in 0.3 mi West 3.5 mph - N/A Fog Fog
7:30 AM 53.6 °F 51.8 °F 94% 30.09 in 0.3 mi West 3.5 mph - N/A Fog Fog
8:30 AM 57 °F 54 °F 86% 30.16 in 0 mi 2.3 mph - - Fog Partial Fog
8:30 AM 62.6 °F 53.6 °F 72% 30.12 in 0.5 mi Variable 2.3 mph - N/A   Partly Cloudy
9:30 AM 62.6 °F 57.2 °F 82% 30.15 in 1.2 mi NW 5.8 mph - N/A   Mist
10:00 AM 62.6 °F 55.4 °F 77% 30.15 in 1.2 mi WNW 6.9 mph - N/A   Mostly Cloudy
10:30 AM 64.4 °F 55.4 °F 73% 30.15 in 1.2 mi NW 5.8 mph - N/A   Scattered Clouds
11:00 AM 64.4 °F 55.4 °F 73% 30.12 in 1.2 mi WNW 5.8 mph - N/A   Scattered Clouds
11:30 AM 68 °F 55 °F 55% 30.15 in 1 mi WNW 4.6 mph - -   Haze
11:30 AM 68.0 °F 55.4 °F 64% 30.12 in 1.6 mi WNW 4.6 mph - N/A   Scattered Clouds
1:00 PM 69.8 °F 57.2 °F 64% 30.06 in 1.9 mi NW 8.1 mph - N/A   Haze
1:30 PM 69.8 °F 57.2 °F 64% 30.06 in 1.9 mi NW 8.1 mph - N/A   Haze
2:00 PM 71.6 °F 57.2 °F 60% 30.04 in 1.9 mi NW 6.9 mph - N/A   Haze
2:30 PM 73 °F 58 °F 50% 30.06 in 1 mi WNW 8.1 mph - -   Haze
2:30 PM 73.4 °F 59.0 °F 61% 30.04 in 2.2 mi WNW 8.1 mph - N/A   Haze
3:00 PM 73.4 °F 59.0 °F 61% 30.04 in 2.5 mi NW 8.1 mph - N/A   Haze
3:30 PM 73.4 °F 59.0 °F 61% 30.04 in 2.5 mi WNW 8.1 mph - N/A   Haze
4:00 PM 71.6 °F 59.0 °F 64% 30.01 in 2.5 mi WNW 8.1 mph - N/A   Haze
4:30 PM 69.8 °F 59.0 °F 68% 30.01 in 2.5 mi WNW 9.2 mph - N/A   Haze
5:00 PM 69.8 °F 59.0 °F 68% 30.01 in 2.5 mi WNW 6.9 mph - N/A   Haze
5:30 PM 69 °F 59 °F 62% 30.04 in 1 mi WNW 6.9 mph - -   Haze
5:30 PM 68.0 °F 59.0 °F 73% 30.01 in 2.2 mi WNW 6.9 mph - N/A   Haze
6:00 PM 66.2 °F 60.8 °F 83% 30.04 in 1.6 mi WNW 6.9 mph - N/A   Haze
6:30 PM 66.2 °F 60.8 °F 83% 30.04 in 1.2 mi West 5.8 mph - N/A   Haze
7:00 PM 64.4 °F 60.8 °F 88% 30.04 in 1.2 mi West 5.8 mph - N/A   Haze
7:30 PM 62.6 °F 59.0 °F 88% 30.06 in 1.2 mi West 4.6 mph - N/A   Haze
8:00 PM 62.6 °F 59.0 °F 88% 30.04 in 1.2 mi WNW 4.6 mph - N/A   Haze
8:30 PM 62 °F 57 °F 79% 30.07 in 1 mi West 4.6 mph - -   Mist
8:30 PM 60.8 °F 57.2 °F 88% 30.06 in 1.2 mi West 4.6 mph - N/A   Mist
9:00 PM 60.8 °F 57.2 °F 88% 30.06 in 0.9 mi West 3.5 mph - N/A   Mist
10:00 PM 59.0 °F 55.4 °F 88% 30.06 in 0.9 mi WSW 4.6 mph - N/A   Mist
11:00 PM 57.2 °F 55.4 °F 94% 30.06 in 0.9 mi West 4.6 mph - N/A   Mist
11:30 PM 57 °F 54 °F 88% 30.10 in 1 mi West 4.6 mph - -   Mist